Time,TemperatureF,DewpointF,PressureIn,WindDirection,WindDirectionDegrees,WindSpeedMPH,WindSpeedGustMPH,Humidity,HourlyPrecipIn,Conditions,Clouds,dailyrainin,SolarRadiationWatts/m^2,SoftwareType,DateUTC
2013-03-21 00:02:00,39.0,30.0,-100.00,West,281,21.0,51.0,69,0.00,,,0.00,0.000000,,2013-03-21 07:02:00,
2013-03-21 00:12:00,39.0,30.0,-100.00,West,281,21.0,51.0,69,0.00,,,0.00,0.000000,,2013-03-21 07:12:00,
2013-03-21 00:21:00,39.0,30.0,-100.00,West,281,21.0,51.0,69,0.00,,,0.00,0.000000,,2013-03-21 07:21:00,
2013-03-21 00:52:00,40.0,33.0,-100.00,West,272,25.0,53.0,76,0.00,,,0.00,0.000000,,2013-03-21 07:52:00,
2013-03-21 01:02:00,40.0,33.0,-100.00,West,272,25.0,53.0,76,0.00,,,0.00,0.000000,,2013-03-21 08:02:00,
2013-03-21 01:12:00,40.0,33.0,-100.00,West,272,25.0,53.0,76,0.00,,,0.00,0.000000,,2013-03-21 08:12:00,
2013-03-21 01:22:00,40.0,33.0,-100.00,West,272,25.0,53.0,76,0.00,,,0.00,0.000000,,2013-03-21 08:22:00,
2013-03-21 01:52:00,40.0,35.0,-100.00,WNW,282,28.0,58.0,81,0.00,,,0.00,0.000000,,2013-03-21 08:52:00,
2013-03-21 02:02:00,40.0,35.0,-100.00,WNW,282,28.0,58.0,81,0.00,,,0.00,0.000000,,2013-03-21 09:02:00,
2013-03-21 02:11:00,40.0,35.0,-100.00,WNW,282,28.0,58.0,81,0.00,,,0.00,0.000000,,2013-03-21 09:11:00,
2013-03-21 02:21:00,40.0,35.0,-100.00,WNW,282,28.0,58.0,81,0.00,,,0.00,0.000000,,2013-03-21 09:21:00,
2013-03-21 02:53:00,40.0,34.0,-100.00,WNW,282,32.0,54.0,80,0.00,,,0.00,0.000000,,2013-03-21 09:53:00,
2013-03-21 03:02:00,40.0,34.0,-100.00,WNW,282,32.0,54.0,80,0.00,,,0.00,0.000000,,2013-03-21 10:02:00,
2013-03-21 03:12:00,40.0,34.0,-100.00,WNW,282,32.0,54.0,80,0.00,,,0.00,0.000000,,2013-03-21 10:12:00,
2013-03-21 03:22:00,40.0,34.0,-100.00,WNW,282,32.0,54.0,80,0.00,,,0.00,0.000000,,2013-03-21 10:22:00,
2013-03-21 03:53:00,40.0,34.0,-100.00,West,276,32.0,56.0,80,0.00,,,0.00,0.000000,,2013-03-21 10:53:00,
2013-03-21 04:02:00,40.0,34.0,-100.00,West,276,32.0,56.0,80,0.00,,,0.00,0.000000,,2013-03-21 11:02:00,
2013-03-21 04:12:00,40.0,34.0,-100.00,West,276,32.0,56.0,80,0.00,,,0.00,0.000000,,2013-03-21 11:12:00,
2013-03-21 04:22:00,40.0,34.0,-100.00,West,276,32.0,56.0,80,0.00,,,0.00,0.000000,,2013-03-21 11:22:00,
2013-03-21 04:53:00,38.0,32.0,-100.00,SW,233,25.0,53.0,79,0.00,,,0.00,0.000000,,2013-03-21 11:53:00,
2013-03-21 05:02:00,38.0,32.0,-100.00,SW,233,25.0,53.0,79,0.00,,,0.00,0.000000,,2013-03-21 12:02:00,
2013-03-21 05:12:00,38.0,32.0,-100.00,SW,233,25.0,53.0,79,0.00,,,0.00,0.000000,,2013-03-21 12:12:00,
2013-03-21 05:22:00,38.0,32.0,-100.00,SW,233,25.0,53.0,79,0.00,,,0.00,0.000000,,2013-03-21 12:22:00,
2013-03-21 05:53:00,39.0,33.0,-100.00,SE,127,17.0,44.0,80,0.00,,,0.00,0.000000,,2013-03-21 12:53:00,
2013-03-21 06:02:00,39.0,33.0,-100.00,SE,127,17.0,44.0,80,0.00,,,0.00,0.000000,,2013-03-21 13:02:00,
2013-03-21 06:12:00,39.0,33.0,-100.00,SE,127,17.0,44.0,80,0.00,,,0.00,0.000000,,2013-03-21 13:12:00,
2013-03-21 06:22:00,39.0,33.0,-100.00,SE,127,17.0,44.0,80,0.00,,,0.00,0.000000,,2013-03-21 13:22:00,
2013-03-21 06:52:00,37.0,32.0,-100.00,West,269,18.0,36.0,81,0.00,,,0.00,0.000000,,2013-03-21 13:52:00,
2013-03-21 07:02:00,37.0,32.0,-100.00,West,269,18.0,36.0,81,0.00,,,0.00,0.000000,,2013-03-21 14:02:00,
2013-03-21 07:11:00,37.0,32.0,-100.00,West,269,18.0,36.0,81,0.00,,,0.00,0.000000,,2013-03-21 14:11:00,
2013-03-21 07:21:00,37.0,32.0,-100.00,West,269,18.0,36.0,81,0.00,,,0.00,0.000000,,2013-03-21 14:21:00,
2013-03-21 07:52:00,39.0,32.0,-100.00,WNW,294,23.0,40.0,77,0.00,,,0.00,13.000000,,2013-03-21 14:52:00,
2013-03-21 08:03:00,39.0,32.0,-100.00,WNW,294,23.0,40.0,77,0.00,,,0.00,13.000000,,2013-03-21 15:03:00,
2013-03-21 08:12:00,39.0,32.0,-100.00,WNW,294,23.0,40.0,77,0.00,,,0.00,13.000000,,2013-03-21 15:12:00,
2013-03-21 08:22:00,39.0,32.0,-100.00,WNW,294,23.0,40.0,77,0.00,,,0.00,13.000000,,2013-03-21 15:22:00,
2013-03-21 08:53:00,40.0,34.0,-100.00,NW,305,21.0,41.0,78,0.00,,,0.00,104.000000,,2013-03-21 15:53:00,
2013-03-21 09:03:00,40.0,34.0,-100.00,NW,305,21.0,41.0,78,0.00,,,0.00,104.000000,,2013-03-21 16:03:00,
2013-03-21 09:12:00,40.0,34.0,-100.00,NW,305,21.0,41.0,78,0.00,,,0.00,104.000000,,2013-03-21 16:12:00,
2013-03-21 09:22:00,40.0,34.0,-100.00,NW,305,21.0,41.0,78,0.00,,,0.00,104.000000,,2013-03-21 16:22:00,
2013-03-21 09:53:00,40.0,31.0,-100.00,NW,320,21.0,32.0,69,0.00,,,0.00,265.000000,,2013-03-21 16:53:00,
2013-03-21 10:02:00,40.0,31.0,-100.00,NW,320,21.0,32.0,69,0.00,,,0.00,265.000000,,2013-03-21 17:02:00,
2013-03-21 10:12:00,40.0,31.0,-100.00,NW,320,21.0,32.0,69,0.00,,,0.00,265.000000,,2013-03-21 17:12:00,
2013-03-21 10:22:00,40.0,31.0,-100.00,NW,320,21.0,32.0,69,0.00,,,0.00,265.000000,,2013-03-21 17:22:00,
2013-03-21 10:53:00,46.0,26.0,-100.00,NNW,337,18.0,30.0,46,0.00,,,0.00,724.000000,,2013-03-21 17:53:00,
2013-03-21 11:02:00,46.0,26.0,-100.00,NNW,337,18.0,30.0,46,0.00,,,0.00,724.000000,,2013-03-21 18:02:00,
2013-03-21 11:12:00,46.0,26.0,-100.00,NNW,337,18.0,30.0,46,0.00,,,0.00,724.000000,,2013-03-21 18:12:00,
2013-03-21 11:22:00,46.0,26.0,-100.00,NNW,337,18.0,30.0,46,0.00,,,0.00,724.000000,,2013-03-21 18:22:00,
2013-03-21 11:52:00,50.0,21.0,-100.00,East,84,16.0,24.0,31,0.00,,,0.00,999.000000,,2013-03-21 18:52:00,
2013-03-21 12:02:00,50.0,21.0,-100.00,East,84,16.0,24.0,31,0.00,,,0.00,999.000000,,2013-03-21 19:02:00,
2013-03-21 12:12:00,50.0,21.0,-100.00,East,84,16.0,24.0,31,0.00,,,0.00,999.000000,,2013-03-21 19:12:00,
2013-03-21 12:22:00,50.0,21.0,-100.00,East,84,16.0,24.0,31,0.00,,,0.00,999.000000,,2013-03-21 19:22:00,
2013-03-21 12:53:00,53.0,25.0,-100.00,NW,324,11.0,22.0,33,0.00,,,0.00,1129.000000,,2013-03-21 19:53:00,
2013-03-21 13:02:00,53.0,25.0,-100.00,NW,324,11.0,22.0,33,0.00,,,0.00,1129.000000,,2013-03-21 20:02:00,
2013-03-21 13:12:00,53.0,25.0,-100.00,NW,324,11.0,22.0,33,0.00,,,0.00,1129.000000,,2013-03-21 20:12:00,
2013-03-21 13:22:00,53.0,25.0,-100.00,NW,324,11.0,22.0,33,0.00,,,0.00,1129.000000,,2013-03-21 20:22:00,
2013-03-21 13:53:00,57.0,26.0,-100.00,WNW,303,16.0,21.0,30,0.00,,,0.00,1173.000000,,2013-03-21 20:53:00,
2013-03-21 14:02:00,57.0,26.0,-100.00,WNW,303,16.0,21.0,30,0.00,,,0.00,1173.000000,,2013-03-21 21:02:00,
2013-03-21 14:12:00,57.0,26.0,-100.00,WNW,303,16.0,21.0,30,0.00,,,0.00,1173.000000,,2013-03-21 21:12:00,
2013-03-21 14:22:00,57.0,26.0,-100.00,WNW,303,16.0,21.0,30,0.00,,,0.00,1173.000000,,2013-03-21 21:22:00,
2013-03-21 14:53:00,58.0,25.0,-100.00,WNW,297,13.0,22.0,28,0.00,,,0.00,1132.000000,,2013-03-21 21:53:00,
2013-03-21 15:02:00,58.0,25.0,-100.00,WNW,297,13.0,22.0,28,0.00,,,0.00,1132.000000,,2013-03-21 22:02:00,
2013-03-21 15:22:00,58.0,25.0,-100.00,WNW,297,13.0,22.0,28,0.00,,,0.00,1132.000000,,2013-03-21 22:22:00,
2013-03-21 15:52:00,55.0,24.0,-100.00,NW,310,13.0,22.0,30,0.00,,,0.00,1009.000000,,2013-03-21 22:52:00,
2013-03-21 16:02:00,55.0,24.0,-100.00,NW,310,13.0,22.0,30,0.00,,,0.00,1009.000000,,2013-03-21 23:02:00,
2013-03-21 16:12:00,55.0,24.0,-100.00,NW,310,13.0,22.0,30,0.00,,,0.00,1009.000000,,2013-03-21 23:12:00,
2013-03-21 16:21:00,55.0,24.0,-100.00,NW,310,13.0,22.0,30,0.00,,,0.00,1009.000000,,2013-03-21 23:21:00,
2013-03-21 16:53:00,52.0,25.0,-100.00,NW,321,17.0,29.0,34,0.00,,,0.00,815.000000,,2013-03-21 23:53:00,
2013-03-21 17:02:00,52.0,25.0,-100.00,NW,321,17.0,29.0,34,0.00,,,0.00,815.000000,,2013-03-22 00:02:00,
2013-03-21 17:12:00,52.0,25.0,-100.00,NW,321,17.0,29.0,34,0.00,,,0.00,815.000000,,2013-03-22 00:12:00,
2013-03-21 17:21:00,52.0,25.0,-100.00,NW,321,17.0,29.0,34,0.00,,,0.00,815.000000,,2013-03-22 00:21:00,
2013-03-21 17:52:00,48.0,27.0,-100.00,WSW,241,20.0,38.0,43,0.00,,,0.00,567.000000,,2013-03-22 00:52:00,
2013-03-21 18:02:00,48.0,27.0,-100.00,WSW,241,20.0,38.0,43,0.00,,,0.00,567.000000,,2013-03-22 01:02:00,
2013-03-21 18:12:00,48.0,27.0,-100.00,WSW,241,20.0,38.0,43,0.00,,,0.00,567.000000,,2013-03-22 01:12:00,
2013-03-21 18:21:00,48.0,27.0,-100.00,WSW,241,20.0,38.0,43,0.00,,,0.00,567.000000,,2013-03-22 01:21:00,
2013-03-21 18:53:00,46.0,22.0,-100.00,West,267,15.0,41.0,38,0.00,,,0.00,246.000000,,2013-03-22 01:53:00,
2013-03-21 19:12:00,46.0,22.0,-100.00,West,267,15.0,41.0,38,0.00,,,0.00,246.000000,,2013-03-22 02:12:00,
2013-03-21 19:22:00,46.0,22.0,-100.00,West,267,15.0,41.0,38,0.00,,,0.00,246.000000,,2013-03-22 02:22:00,
2013-03-21 19:52:00,41.0,26.0,-100.00,West,280,30.0,46.0,55,0.00,,,0.00,16.000000,,2013-03-22 02:52:00,
2013-03-21 20:02:00,41.0,26.0,-100.00,West,280,30.0,46.0,55,0.00,,,0.00,16.000000,,2013-03-22 03:02:00,
2013-03-21 20:12:00,41.0,26.0,-100.00,West,280,30.0,46.0,55,0.00,,,0.00,16.000000,,2013-03-22 03:12:00,
2013-03-21 20:21:00,41.0,26.0,-100.00,West,280,30.0,46.0,55,0.00,,,0.00,16.000000,,2013-03-22 03:21:00,
2013-03-21 20:53:00,39.0,27.0,-100.00,WNW,286,21.0,47.0,61,0.00,,,0.00,0.000000,,2013-03-22 03:53:00,
2013-03-21 21:03:00,39.0,27.0,-100.00,WNW,286,21.0,47.0,61,0.00,,,0.00,0.000000,,2013-03-22 04:03:00,
2013-03-21 21:12:00,39.0,27.0,-100.00,WNW,286,21.0,47.0,61,0.00,,,0.00,0.000000,,2013-03-22 04:12:00,
2013-03-21 21:22:00,39.0,27.0,-100.00,WNW,286,21.0,47.0,61,0.00,,,0.00,0.000000,,2013-03-22 04:22:00,
2013-03-21 21:52:00,37.0,26.0,-100.00,WSW,242,17.0,34.0,64,0.00,,,0.00,0.000000,,2013-03-22 04:52:00,
2013-03-21 22:02:00,37.0,26.0,-100.00,WSW,242,17.0,34.0,64,0.00,,,0.00,0.000000,,2013-03-22 05:02:00,
2013-03-21 22:12:00,37.0,26.0,-100.00,WSW,242,17.0,34.0,64,0.00,,,0.00,0.000000,,2013-03-22 05:12:00,
2013-03-21 22:22:00,37.0,26.0,-100.00,WSW,242,17.0,34.0,64,0.00,,,0.00,0.000000,,2013-03-22 05:22:00,
2013-03-21 22:52:00,38.0,30.0,-100.00,NW,313,24.0,37.0,72,0.00,,,0.00,0.000000,,2013-03-22 05:52:00,
2013-03-21 23:02:00,38.0,30.0,-100.00,NW,313,24.0,37.0,72,0.00,,,0.00,0.000000,,2013-03-22 06:02:00,
2013-03-21 23:12:00,38.0,30.0,-100.00,NW,313,24.0,37.0,72,0.00,,,0.00,0.000000,,2013-03-22 06:12:00,
2013-03-21 23:21:00,38.0,30.0,-100.00,NW,313,24.0,37.0,72,0.00,,,0.00,0.000000,,2013-03-22 06:21:00,
2013-03-21 23:52:00,38.0,31.0,-100.00,NW,322,29.0,36.0,75,0.00,,,0.00,0.000000,,2013-03-22 06:52:00,